TimeEDT,TemperatureF,Dew PointF,Humidity,Sea Level PressureIn,VisibilityMPH,Wind Direction,Wind SpeedMPH,Gust SpeedMPH,PrecipitationIn,Events,Conditions,WindDirDegrees,DateUTC
12:15 AM,57.2,53.6,88,30.23,5.0,Calm,Calm,-,N/A,,Overcast,0,2012-10-26 04:15:00
12:35 AM,57.2,53.6,88,30.23,7.0,Calm,Calm,-,N/A,,Overcast,0,2012-10-26 04:35:00
12:55 AM,57.2,53.6,88,30.22,7.0,Calm,Calm,-,N/A,,Overcast,0,2012-10-26 04:55:00
1:15 AM,57.2,53.6,88,30.22,7.0,Calm,Calm,-,N/A,,Overcast,0,2012-10-26 05:15:00
1:35 AM,57.2,53.6,88,30.22,7.0,East,4.6,-,N/A,,Overcast,90,2012-10-26 05:35:00
2:15 AM,57.2,53.6,88,30.22,7.0,Calm,Calm,-,N/A,,Overcast,0,2012-10-26 06:15:00
2:35 AM,57.2,53.6,88,30.22,7.0,Calm,Calm,-,N/A,,Overcast,0,2012-10-26 06:35:00
2:55 AM,57.2,53.6,88,30.22,7.0,Calm,Calm,-,N/A,,Overcast,0,2012-10-26 06:55:00
3:35 AM,57.2,53.6,88,30.22,7.0,Calm,Calm,-,N/A,,Overcast,0,2012-10-26 07:35:00
3:55 AM,57.2,53.6,88,30.22,7.0,Calm,Calm,-,N/A,,Overcast,0,2012-10-26 07:55:00
4:15 AM,57.2,53.6,88,30.22,7.0,Calm,Calm,-,N/A,,Overcast,0,2012-10-26 08:15:00
4:55 AM,57.2,53.6,88,30.22,5.0,NE,3.5,-,N/A,,Overcast,40,2012-10-26 08:55:00
5:15 AM,57.2,53.6,88,30.22,5.0,ENE,3.5,-,N/A,,Overcast,70,2012-10-26 09:15:00
5:35 AM,55.4,53.6,94,30.21,5.0,ENE,3.5,-,N/A,,Overcast,60,2012-10-26 09:35:00
5:55 AM,55.4,53.6,94,30.21,5.0,Calm,Calm,-,N/A,,Overcast,0,2012-10-26 09:55:00
6:15 AM,57.2,53.6,88,30.21,7.0,East,3.5,-,N/A,,Overcast,100,2012-10-26 10:15:00
6:35 AM,57.2,53.6,88,30.21,7.0,East,3.5,-,N/A,,Overcast,80,2012-10-26 10:35:00
6:55 AM,57.2,53.6,88,30.22,7.0,Calm,Calm,-,N/A,,Overcast,0,2012-10-26 10:55:00
7:15 AM,57.2,53.6,88,30.22,7.0,Calm,Calm,-,N/A,,Overcast,0,2012-10-26 11:15:00
7:35 AM,57.2,53.6,88,30.23,7.0,Calm,Calm,-,N/A,,Overcast,0,2012-10-26 11:35:00
7:55 AM,57.2,53.6,88,30.23,5.0,East,3.5,-,N/A,,Overcast,90,2012-10-26 11:55:00
8:15 AM,57.2,53.6,88,30.24,5.0,Calm,Calm,-,N/A,,Overcast,0,2012-10-26 12:15:00
8:35 AM,57.2,53.6,88,30.24,5.0,ENE,3.5,-,N/A,,Overcast,70,2012-10-26 12:35:00
8:55 AM,57.2,53.6,88,30.24,5.0,Calm,Calm,-,N/A,,Overcast,0,2012-10-26 12:55:00
9:35 AM,57.2,53.6,88,30.23,5.0,ENE,3.5,-,N/A,,Overcast,70,2012-10-26 13:35:00
9:55 AM,59.0,53.6,82,30.23,5.0,East,3.5,-,N/A,,Overcast,80,2012-10-26 13:55:00
10:15 AM,59.0,53.6,82,30.22,7.0,East,4.6,-,N/A,,Overcast,80,2012-10-26 14:15:00
10:35 AM,59.0,53.6,82,30.23,7.0,East,5.8,-,N/A,,Overcast,100,2012-10-26 14:35:00
10:55 AM,59.0,53.6,82,30.22,7.0,Calm,Calm,-,N/A,,Overcast,0,2012-10-26 14:55:00
11:15 AM,59.0,53.6,82,30.23,7.0,Calm,Calm,-,N/A,,Overcast,0,2012-10-26 15:15:00
11:35 AM,60.8,53.6,77,30.23,7.0,Calm,Calm,-,N/A,,Overcast,0,2012-10-26 15:35:00
11:55 AM,60.8,53.6,77,30.23,7.0,Calm,Calm,-,N/A,,Overcast,0,2012-10-26 15:55:00
12:15 PM,60.8,53.6,77,30.22,7.0,Calm,Calm,-,N/A,,Overcast,0,2012-10-26 16:15:00
12:35 PM,60.8,55.4,82,30.21,7.0,SSE,3.5,-,N/A,,Overcast,150,2012-10-26 16:35:00
12:55 PM,60.8,53.6,77,30.20,7.0,Calm,Calm,-,N/A,,Overcast,0,2012-10-26 16:55:00
1:15 PM,62.6,55.4,77,30.19,7.0,SE,3.5,-,N/A,,Overcast,140,2012-10-26 17:15:00
1:35 PM,62.6,53.6,72,30.17,7.0,ENE,3.5,-,N/A,,Overcast,70,2012-10-26 17:35:00
1:55 PM,62.6,53.6,72,30.17,10.0,Calm,Calm,-,N/A,,Overcast,0,2012-10-26 17:55:00
2:15 PM,62.6,53.6,72,30.17,10.0,Calm,Calm,-,N/A,,Overcast,0,2012-10-26 18:15:00
2:35 PM,62.6,55.4,77,30.16,10.0,Calm,Calm,-,N/A,,Overcast,0,2012-10-26 18:35:00
2:55 PM,62.6,53.6,72,30.16,10.0,Calm,Calm,-,N/A,,Overcast,0,2012-10-26 18:55:00
3:35 PM,62.6,53.6,72,30.15,7.0,Calm,Calm,-,N/A,,Overcast,0,2012-10-26 19:35:00
3:55 PM,62.6,53.6,72,30.15,7.0,Calm,Calm,-,N/A,,Overcast,0,2012-10-26 19:55:00
4:15 PM,62.6,53.6,72,30.14,10.0,Calm,Calm,-,N/A,,Overcast,0,2012-10-26 20:15:00
4:35 PM,62.6,53.6,72,30.14,10.0,ESE,4.6,-,N/A,,Overcast,120,2012-10-26 20:35:00
4:55 PM,62.6,53.6,72,30.14,10.0,Calm,Calm,-,N/A,,Overcast,0,2012-10-26 20:55:00
5:15 PM,62.6,53.6,72,30.13,10.0,East,3.5,-,N/A,,Overcast,100,2012-10-26 21:15:00
5:35 PM,62.6,53.6,72,30.13,10.0,Calm,Calm,-,N/A,,Overcast,0,2012-10-26 21:35:00
5:55 PM,62.6,53.6,72,30.13,10.0,Calm,Calm,-,N/A,,Overcast,0,2012-10-26 21:55:00
6:15 PM,60.8,53.6,77,30.13,10.0,Calm,Calm,-,N/A,,Overcast,0,2012-10-26 22:15:00
6:35 PM,60.8,53.6,77,30.13,10.0,Calm,Calm,-,N/A,,Overcast,0,2012-10-26 22:35:00
6:55 PM,60.8,53.6,77,30.14,10.0,Calm,Calm,-,N/A,,Overcast,0,2012-10-26 22:55:00
7:15 PM,60.8,53.6,77,30.14,10.0,Calm,Calm,-,N/A,,Overcast,0,2012-10-26 23:15:00
7:35 PM,60.8,53.6,77,30.14,10.0,Calm,Calm,-,N/A,,Overcast,0,2012-10-26 23:35:00
7:55 PM,60.8,53.6,77,30.14,10.0,Calm,Calm,-,N/A,,Overcast,0,2012-10-26 23:55:00
8:15 PM,60.8,53.6,77,30.14,10.0,Calm,Calm,-,N/A,,Overcast,0,2012-10-27 00:15:00
8:35 PM,60.8,53.6,77,30.14,10.0,NE,3.5,-,N/A,,Overcast,50,2012-10-27 00:35:00
8:55 PM,60.8,53.6,77,30.14,10.0,Calm,Calm,-,N/A,,Overcast,0,2012-10-27 00:55:00
9:15 PM,60.8,53.6,77,30.14,10.0,Calm,Calm,-,N/A,,Overcast,0,2012-10-27 01:15:00
9:35 PM,60.8,53.6,77,30.14,10.0,Calm,Calm,-,N/A,,Overcast,0,2012-10-27 01:35:00
10:15 PM,60.8,53.6,77,30.14,10.0,Calm,Calm,-,N/A,,Overcast,0,2012-10-27 02:15:00
10:35 PM,60.8,53.6,77,30.13,10.0,Calm,Calm,-,N/A,,Overcast,0,2012-10-27 02:35:00
10:55 PM,60.8,53.6,77,30.13,10.0,NNE,3.5,-,N/A,,Overcast,30,2012-10-27 02:55:00
11:15 PM,60.8,53.6,77,30.12,10.0,Calm,Calm,-,N/A,,Overcast,0,2012-10-27 03:15:00
11:35 PM,60.8,53.6,77,30.12,10.0,ENE,4.6,-,N/A,,Overcast,70,2012-10-27 03:35:00
11:55 PM,60.8,53.6,77,30.11,10.0,Calm,Calm,-,N/A,,Overcast,0,2012-10-27 03:55:00